Date,TemperatureHighF,TemperatureAvgF,TemperatureLowF,DewpointHighF,DewpointAvgF,DewpointLowF,HumidityHigh,HumidityAvg,HumidityLow,PressureMaxIn,PressureMinIn,WindSpeedMaxMPH,WindSpeedAvgMPH,GustSpeedMaxMPH,PrecipitationSumIn
2013-1-1,36,28,18,33,25,14,93,89,84,30.12,29.92,8,2,8,0.01
2013-1-2,35,26,15,26,18,12,89,74,51,30.13,30.03,5,1,5,0.00
2013-1-3,41,30,20,29,22,17,89,75,52,30.27,30.10,6,1,6,0.00
2013-1-4,45,33,22,27,23,18,86,68,43,30.32,30.17,7,1,7,0.00
2013-1-5,42,35,27,33,28,20,85,76,66,30.19,30.03,7,1,7,0.00
2013-1-6,41,32,22,29,24,16,86,72,49,30.23,30.07,12,2,12,0.00
2013-1-7,51,36,22,30,25,16,84,65,41,30.22,30.00,5,1,7,0.00
2013-1-8,55,43,29,46,32,23,93,69,46,30.09,29.93,6,1,6,0.27
2013-1-9,56,49,43,45,41,34,92,74,52,30.26,30.09,8,1,8,0.01
2013-1-10,52,48,42,50,45,35,95,90,57,30.17,29.71,11,3,11,0.36
2013-1-11,66,55,45,49,46,42,93,73,48,29.76,29.62,11,3,11,0.00
2013-1-12,55,42,28,47,35,25,91,78,53,29.87,29.70,14,4,14,0.21
2013-1-13,28,22,15,25,18,11,90,84,78,30.21,29.82,10,2,10,0.00
2013-1-14,30,21,14,19,14,10,85,74,58,30.33,30.19,9,1,9,0.01
2013-1-15,34,24,17,22,16,12,84,73,44,30.21,30.03,5,1,5,0.00
2013-1-16,41,23,15,25,16,11,87,76,48,30.04,29.95,5,0,5,0.03
2013-1-17,45,37,25,32,26,18,88,66,50,30.35,30.03,11,3,11,0.00
2013-1-18,58,40,24,33,26,20,87,61,30,30.37,30.06,10,2,10,0.00
2013-1-19,63,47,38,38,32,26,71,57,39,30.10,29.93,12,2,12,0.00
2013-1-20,53,40,28,34,23,16,81,53,29,30.17,30.05,8,2,8,0.00
2013-1-21,34,26,19,17,14,10,74,60,46,30.26,30.16,9,2,9,0.00
2013-1-22,36,27,20,19,15,11,74,61,50,30.24,30.11,5,1,5,0.00
2013-1-23,58,38,22,42,28,15,82,68,54,30.18,30.02,6,1,6,0.00
2013-1-24,35,30,25,24,16,10,66,55,45,30.28,30.02,10,3,10,0.00
2013-1-25,49,36,28,30,25,18,86,67,45,30.14,29.99,9,1,9,0.00
2013-1-26,59,44,30,32,26,22,78,52,28,30.17,30.04,6,1,6,0.00
2013-1-27,54,48,41,51,42,27,91,80,47,30.05,29.80,9,3,9,0.01
2013-1-28,74,64,54,62,58,51,92,82,60,29.86,29.74,13,3,13,0.00
2013-1-29,68,57,47,61,54,45,94,89,75,29.75,29.36,10,2,10,2.15
2013-1-30,48,33,26,46,28,19,94,83,73,29.91,29.35,14,5,14,0.00
2013-1-31,41,26,13,30,18,3,87,74,59,30.30,29.86,12,2,12,0.00
2013-2-1,36,22,9,17,10,2,74,59,41,30.32,30.05,5,1,5,0.00
2013-2-2,51,38,26,35,27,16,79,65,54,30.09,30.01,11,2,11,0.01
2013-2-3,51,42,34,31,27,22,79,56,34,30.15,29.86,10,2,10,0.00
2013-2-4,60,48,34,43,34,25,75,59,44,29.86,29.72,11,2,11,0.02
2013-2-5,62,44,28,43,31,24,90,63,35,29.97,29.82,12,1,12,0.00
2013-2-6,59,46,31,40,33,24,83,63,43,30.04,29.88,8,2,8,0.00
2013-2-7,53,47,41,49,43,37,92,84,71,29.98,29.78,11,2,11,0.23
2013-2-8,48,38,32,38,31,28,90,76,57,30.20,29.98,12,3,12,0.00
2013-2-9,43,36,32,35,31,28,92,82,64,30.13,29.77,8,2,8,0.10
2013-2-10,61,46,38,52,38,26,95,77,34,29.90,29.54,16,4,16,0.16
2013-2-11,51,39,30,30,26,22,78,60,39,30.06,29.90,8,2,8,0.00
2013-2-12,46,35,26,33,27,20,88,74,53,30.04,29.81,8,1,8,0.00
2013-2-13,49,38,32,37,32,29,93,81,58,29.87,29.79,8,2,8,0.21
2013-2-14,55,45,34,36,30,24,74,58,44,30.03,29.80,8,2,8,0.00
2013-2-15,42,35,24,31,20,11,81,56,35,30.18,30.02,11,3,11,0.00
2013-2-16,38,31,23,23,19,12,82,63,44,30.19,30.01,7,1,7,0.01
2013-2-17,64,47,30,33,27,19,67,47,31,30.01,29.73,6,2,6,0.00
2013-2-18,58,48,31,50,38,23,86,71,57,29.97,29.48,15,4,15,0.03
2013-2-19,42,32,25,24,17,12,75,55,33,30.17,29.97,14,2,14,0.00
2013-2-20,36,30,25,16,12,8,56,47,38,30.19,30.00,7,1,7,0.00
2013-2-21,32,30,27,30,25,15,92,83,51,30.01,29.61,13,3,13,0.00
2013-2-22,34,27,22,31,22,17,93,80,64,29.97,29.71,11,2,11,0.09
2013-2-23,41,28,18,25,19,14,87,71,49,29.98,29.85,5,0,5,0.19
2013-2-24,55,40,24,35,28,18,83,65,46,29.92,29.78,8,2,8,0.00
2013-2-25,46,38,34,33,30,27,90,72,48,29.82,29.32,12,3,12,0.40
2013-2-26,35,32,32,32,30,30,93,92,88,29.72,29.25,9,2,9,0.12
2013-2-27,34,32,31,30,28,26,91,85,78,29.91,29.68,9,3,9,0.04
2013-2-28,32,31,28,27,26,24,86,81,77,30.05,29.89,10,3,10,0.00
2013-3-1,30,28,27,26,24,23,87,84,78,30.11,30.01,7,2,7,0.00
2013-3-2,34,27,21,24,20,16,87,75,60,30.19,30.07,10,3,10,0.04
2013-3-3,55,39,20,31,25,16,85,61,37,30.08,29.73,8,2,8,0.02
2013-3-4,65,49,38,46,37,28,86,63,45,29.73,29.53,8,2,8,0.00
2013-3-5,42,36,29,34,26,20,90,67,49,30.16,29.72,16,6,16,0.04
2013-3-6,46,34,26,26,22,17,72,60,44,30.27,30.14,11,3,11,0.00
2013-3-7,62,46,31,32,28,23,74,53,28,30.17,30.04,7,2,7,0.00
2013-3-8,60,48,36,39,34,30,81,61,43,30.17,29.96,8,2,8,0.00
2013-3-9,73,57,44,55,46,38,93,69,37,29.96,29.63,12,3,12,0.88
2013-3-10,58,47,31,55,44,28,94,90,73,29.78,29.55,11,3,11,1.04
2013-3-11,43,33,28,30,26,22,91,77,51,29.91,29.74,10,3,10,0.00
2013-3-12,53,40,27,31,26,21,81,60,37,30.19,29.90,11,2,11,0.00
2013-3-13,50,37,27,27,23,20,77,60,39,30.33,30.18,8,2,8,0.00
2013-3-14,73,51,30,43,33,22,76,52,33,30.24,29.98,14,3,14,0.00
2013-3-15,82,64,46,51,45,36,75,52,29,30.00,29.67,14,3,14,0.00
2013-3-16,66,57,44,49,43,36,76,60,45,29.83,29.65,12,4,12,0.00
2013-3-17,43,40,37,39,37,34,94,91,78,29.88,29.60,9,2,9,1.32
2013-3-18,54,43,37,41,36,28,94,78,46,29.93,29.59,9,2,9,0.01
2013-3-19,49,39,27,35,25,13,84,59,32,30.13,29.92,9,1,9,0.00
2013-3-20,44,35,28,30,20,11,89,57,29,30.22,30.01,13,3,13,0.00
2013-3-21,38,31,25,28,21,13,91,69,39,30.01,29.78,7,2,7,0.00
2013-3-22,39,34,30,34,31,28,92,88,81,29.86,29.76,5,1,5,0.31
2013-3-23,41,38,34,39,35,32,94,90,81,29.85,29.62,6,1,6,0.15
2013-3-24,41,34,28,39,31,21,94,90,78,29.95,29.49,10,3,10,0.35
2013-3-25,34,28,22,26,22,18,85,79,71,30.17,29.91,11,4,11,0.01
2013-3-26,46,32,22,29,24,20,90,74,49,30.27,30.17,7,2,7,0.00
2013-3-27,54,39,24,32,26,19,86,62,39,30.22,30.06,8,2,8,0.00
2013-3-28,71,56,43,48,40,32,69,55,39,30.12,30.01,8,1,8,0.00
2013-3-29,70,58,50,56,48,40,93,73,50,30.09,30.01,7,1,7,0.16
2013-3-30,70,55,50,58,50,46,92,82,62,30.04,29.73,8,2,8,0.25
2013-3-31,67,56,46,52,44,38,94,68,39,29.88,29.75,10,2,10,0.35
2013-4-1,56,46,40,40,35,27,86,65,52,30.10,29.85,11,3,11,0.00
2013-4-2,41,38,34,33,30,27,83,72,61,30.18,30.07,12,1,12,0.16
2013-4-3,56,44,31,30,25,22,77,50,29,30.18,30.05,9,1,9,0.00
2013-4-4,57,48,39,33,30,25,71,51,36,30.06,29.94,8,1,8,0.00
2013-4-5,74,54,32,43,35,25,83,52,29,30.08,29.88,6,1,6,0.00
2013-4-6,76,62,51,49,43,36,62,50,37,29.88,29.68,14,3,14,0.00
2013-4-7,80,67,54,60,53,45,85,63,40,29.82,29.64,11,2,11,0.00
2013-4-8,76,67,59,61,57,53,83,72,58,29.71,29.62,10,3,10,0.00
2013-4-9,80,69,61,64,59,55,83,72,57,29.73,29.64,8,2,8,0.00
2013-4-10,70,54,38,64,50,36,93,88,70,29.76,29.56,9,2,9,1.03
2013-4-11,51,40,34,37,33,29,93,77,53,29.73,29.63,11,3,11,0.00
2013-4-12,57,44,34,38,32,28,84,65,47,29.92,29.68,12,2,12,0.00
2013-4-13,72,54,36,48,40,31,86,60,39,29.96,29.71,8,2,8,0.00
2013-4-14,83,67,52,58,48,40,89,55,24,29.73,29.44,13,3,13,0.07
2013-4-15,84,64,52,65,56,46,91,77,52,29.79,29.60,13,2,13,0.02
2013-4-16,64,53,48,55,49,46,92,85,71,29.93,29.78,12,3,12,0.00
2013-4-17,86,70,50,70,61,46,96,74,55,29.90,29.56,10,3,10,0.00
2013-4-18,74,51,38,65,46,29,94,83,71,29.83,29.48,12,3,12,1.46
2013-4-19,54,43,34,31,28,24,73,58,38,29.98,29.81,13,4,13,0.00
2013-4-20,67,51,33,40,35,28,85,56,33,30.11,29.97,5,1,5,0.00
2013-4-21,70,59,48,45,41,38,78,54,35,30.18,30.03,12,2,12,0.00
2013-4-22,73,59,45,46,41,38,77,54,32,30.10,29.81,8,1,8,0.00
2013-4-23,60,48,36,51,43,34,92,84,59,29.98,29.75,11,3,11,0.39
2013-4-24,56,42,34,36,32,27,92,70,39,30.18,29.97,11,3,11,0.02
2013-4-25,71,53,32,41,34,27,83,53,26,30.24,30.11,8,1,8,0.00
2013-4-26,58,50,46,46,43,38,94,81,48,30.23,30.05,7,2,7,1.42
2013-4-27,55,50,46,52,48,45,94,93,88,30.06,29.88,5,1,5,0.25
2013-4-28,77,58,49,55,49,46,93,75,44,29.93,29.78,6,1,6,0.00
2013-4-29,88,69,50,65,55,47,92,64,33,29.82,29.67,10,2,10,0.00
2013-4-30,87,72,58,61,54,48,86,56,30,29.80,29.70,11,2,11,0.00
2013-5-1,86,71,58,65,58,48,85,65,46,29.98,29.80,6,1,6,0.00
2013-5-2,63,49,35,59,44,32,92,85,78,30.11,29.96,11,3,11,0.23
2013-5-3,36,34,33,34,32,30,93,92,91,30.09,29.79,10,2,11,0.60
2013-5-4,46,39,33,38,35,31,93,85,70,29.89,29.72,6,1,6,0.32
2013-5-5,61,49,40,50,44,37,90,81,68,29.96,29.88,11,2,11,0.01
2013-5-6,70,57,50,56,51,48,93,82,60,29.96,29.87,10,2,10,0.00
2013-5-7,80,64,48,58,51,45,92,67,41,29.98,29.89,8,1,8,0.00
2013-5-8,78,64,53,63,55,48,86,74,58,29.99,29.82,5,0,5,0.02
2013-5-9,78,65,57,63,58,54,93,78,58,29.89,29.79,10,2,10,0.85
2013-5-10,67,60,52,60,56,48,94,84,69,29.96,29.80,7,2,7,0.00
2013-5-11,72,59,47,56,45,36,92,64,31,30.09,29.94,11,2,11,0.00
2013-5-12,69,55,39,41,36,29,79,52,28,30.17,30.04,8,1,8,0.00
2013-5-13,82,64,47,56,48,39,80,58,38,30.09,29.93,8,1,8,0.00
2013-5-14,90,74,60,59,53,50,74,51,29,29.94,29.85,12,2,12,0.00
2013-5-15,84,69,60,68,59,50,90,71,57,29.90,29.80,10,1,10,0.33
2013-5-16,66,63,61,64,60,59,93,90,85,29.83,29.76,4,1,4,0.10
2013-5-17,81,69,61,66,62,59,93,80,57,29.86,29.78,5,1,5,0.00
2013-5-18,86,74,63,75,68,60,92,82,69,29.86,29.73,5,1,5,0.00
2013-5-19,89,77,69,74,69,66,93,76,48,29.78,29.58,8,2,8,0.06
2013-5-20,78,68,62,70,64,58,92,85,71,29.77,29.61,13,1,13,0.88
2013-5-21,70,63,60,63,60,56,94,88,75,29.78,29.51,9,2,9,0.02
2013-5-22,73,64,55,60,56,52,92,76,59,29.85,29.67,10,2,10,0.00
2013-5-23,74,64,54,60,55,51,90,74,57,30.09,29.85,10,2,10,0.00
2013-5-24,76,64,52,56,52,48,87,65,43,30.22,30.08,7,1,7,0.00
2013-5-25,82,68,55,67,57,46,80,68,58,30.15,29.97,6,1,6,0.00
2013-5-26,86,74,62,71,64,58,87,72,54,30.04,29.89,7,1,7,0.00
2013-5-27,85,75,66,72,66,61,88,75,62,29.91,29.70,10,2,10,0.00
2013-5-28,85,75,70,72,66,63,84,76,60,29.80,29.67,10,1,10,0.00
2013-5-29,83,75,67,70,66,62,87,74,61,29.82,29.68,7,2,7,0.00
2013-5-30,83,71,62,71,64,60,94,80,59,29.80,29.65,10,2,10,2.50
2013-5-31,83,73,65,76,68,62,94,87,75,29.76,29.60,11,2,11,0.49
2013-6-1,76,68,62,67,63,57,96,86,66,29.88,29.62,8,2,8,1.22
2013-6-2,64,60,56,58,56,53,92,86,79,29.97,29.87,6,1,6,0.00
2013-6-3,77,64,49,64,56,46,94,78,58,29.97,29.83,5,1,5,0.00
2013-6-4,74,70,60,67,64,56,88,81,74,29.93,29.83,6,1,6,0.01
2013-6-5,74,69,61,69,65,58,92,87,81,29.92,29.76,6,1,6,0.08
2013-6-6,72,64,58,65,60,56,95,87,73,29.85,29.79,5,1,5,0.01
2013-6-7,74,67,54,62,57,52,92,73,54,29.89,29.81,6,1,6,0.01
2013-6-8,81,68,53,65,58,49,90,71,50,29.87,29.76,6,1,6,0.00
2013-6-9,79,67,61,66,60,58,92,79,56,29.85,29.74,7,1,7,0.42
2013-6-10,88,76,62,76,67,57,86,75,59,29.83,29.73,5,1,5,0.00
2013-6-11,94,81,69,74,69,65,88,69,41,29.91,29.82,8,2,8,0.00
2013-6-12,91,82,71,75,70,66,88,70,52,29.88,29.78,13,3,13,0.00
2013-6-13,85,78,70,71,67,60,82,69,59,29.94,29.82,8,2,8,0.00
2013-6-14,90,77,65,75,68,61,87,73,61,29.96,29.86,4,1,6,0.00
2013-6-15,75,70,66,69,66,63,94,86,75,30.00,29.84,8,1,8,2.68
2013-6-16,88,75,67,77,70,64,94,86,70,29.91,29.82,9,1,9,0.52
2013-6-17,73,69,64,71,67,63,96,93,88,29.92,29.77,4,1,4,0.24
2013-6-18,85,72,60,73,66,59,96,82,60,29.94,29.85,8,1,8,0.02
2013-6-19,88,75,63,73,67,60,92,76,55,29.97,29.89,5,1,5,0.00
2013-6-20,89,78,67,75,69,63,88,74,57,30.00,29.91,6,1,6,0.00
2013-6-21,92,82,71,78,72,66,87,74,59,30.00,29.91,9,1,9,0.00
2013-6-22,90,81,72,78,73,68,89,76,58,30.00,29.87,6,1,6,0.00
2013-6-23,91,81,71,77,71,66,88,74,56,29.93,29.83,8,1,8,0.00
2013-6-24,91,81,72,76,71,67,86,72,55,29.98,29.86,8,2,8,0.00
2013-6-25,91,81,72,75,70,67,85,70,53,29.89,29.75,8,2,8,0.00
2013-6-26,93,83,74,78,73,68,85,71,57,29.83,29.74,7,2,7,0.00
2013-6-27,94,85,75,80,76,71,89,76,60,29.89,29.77,6,1,6,0.00
2013-6-28,87,78,70,77,69,62,93,75,55,29.85,29.75,10,2,10,0.71
2013-6-29,84,75,65,66,60,57,81,63,42,29.77,29.69,10,2,10,0.00
2013-6-30,77,67,63,64,60,58,88,78,60,29.88,29.74,5,2,5,0.00
2013-7-1,80,70,62,62,59,54,87,68,49,29.94,29.86,8,1,8,0.00
2013-7-2,80,70,57,61,56,52,83,61,44,29.99,29.92,8,1,8,0.00
2013-7-3,83,70,58,65,58,52,84,67,45,30.02,29.91,5,1,7,0.27
2013-7-4,84,71,58,67,60,55,89,71,44,29.98,29.90,5,1,5,0.01
2013-7-5,88,68,61,69,59,56,83,74,43,29.96,29.86,5,0,5,0.00
2013-7-6,90,78,66,72,64,60,84,65,43,29.95,29.85,4,1,5,0.00
2013-7-7,92,80,68,73,66,62,82,64,41,29.97,29.89,7,1,7,0.00
2013-7-8,92,81,70,75,69,63,81,67,51,30.02,29.93,5,1,5,0.00
2013-7-9,95,84,72,75,70,66,83,66,49,30.00,29.87,7,1,7,0.00
2013-7-10,92,81,70,78,72,66,92,77,57,29.96,29.84,6,1,6,0.59
2013-7-11,90,81,73,74,69,63,89,68,45,29.95,29.87,6,1,6,0.00
2013-7-12,89,77,66,68,61,56,78,60,41,29.99,29.90,6,2,6,0.00
2013-7-13,84,75,63,66,60,54,76,61,47,29.99,29.86,5,1,5,0.00
2013-7-14,88,76,64,67,61,57,81,61,41,30.00,29.91,7,2,7,0.00
2013-7-15,90,78,69,73,68,60,89,72,52,30.09,30.00,7,2,7,0.25
2013-7-16,89,76,70,78,71,67,94,85,58,30.19,30.08,8,1,8,0.08
2013-7-17,94,81,70,77,72,67,92,74,51,30.24,30.10,5,1,5,0.01
2013-7-18,95,83,72,75,70,66,83,66,47,30.13,29.94,4,1,4,0.00
2013-7-19,94,81,71,75,70,65,84,70,48,29.96,29.84,6,1,6,0.00
2013-7-20,91,77,70,75,69,66,88,77,57,29.90,29.77,6,1,6,0.21
2013-7-21,81,74,70,74,70,67,92,88,78,29.87,29.76,6,0,6,0.20
2013-7-22,87,77,66,73,70,63,92,79,58,29.86,29.75,8,1,8,0.14
2013-7-23,94,82,72,79,72,65,87,74,59,29.81,29.71,10,2,10,0.00
2013-7-24,86,77,71,73,68,62,88,74,55,29.94,29.79,7,1,7,0.00
2013-7-25,87,75,63,68,64,58,85,68,52,30.02,29.93,7,1,7,0.00
2013-7-26,73,69,66,67,65,63,94,87,72,29.97,29.91,4,0,4,1.42
2013-7-27,76,70,64,65,62,59,94,79,59,29.98,29.88,6,1,6,0.00
2013-7-28,73,67,62,65,62,59,89,83,74,29.98,29.90,3,0,3,0.00
2013-7-29,83,73,66,75,68,62,91,85,75,30.00,29.91,5,1,5,0.21
2013-7-30,81,74,70,77,72,67,95,92,85,29.98,29.89,6,1,6,3.07
2013-7-31,85,77,71,77,72,67,95,86,70,29.98,29.91,6,1,6,0.00
2013-8-1,87,76,65,72,67,62,93,75,56,30.02,29.90,6,1,6,0.00
2013-8-2,87,77,70,78,71,65,87,82,73,29.91,29.79,7,1,7,0.01
2013-8-3,86,77,69,76,72,66,94,86,68,30.01,29.78,8,1,8,1.32
2013-8-4,75,72,70,72,70,68,95,93,89,30.07,29.94,4,1,7,1.22
2013-8-5,86,76,70,81,73,69,95,92,83,29.96,29.75,8,1,8,0.21
2013-8-6,80,75,71,77,72,69,95,92,87,29.86,29.74,9,1,9,0.47
2013-8-7,82,75,71,77,73,69,96,92,81,29.88,29.73,9,1,9,0.34
2013-8-8,82,75,70,75,72,68,96,90,77,29.90,29.77,5,1,5,0.56
2013-8-9,80,75,72,74,71,68,94,88,77,29.96,29.84,6,1,6,0.04
2013-8-10,82,75,68,71,68,65,92,80,62,30.05,29.96,6,1,6,0.00
2013-8-11,84,76,69,76,71,66,90,84,76,30.03,29.93,5,1,5,0.00
2013-8-12,80,74,71,75,71,68,94,90,78,29.97,29.87,4,1,10,0.78
2013-8-13,82,74,68,71,67,62,94,81,62,29.99,29.90,8,1,8,0.00
2013-8-14,77,69,63,63,59,55,89,72,53,30.08,29.98,7,1,7,0.00
2013-8-15,75,63,56,59,55,51,87,75,55,30.04,29.94,4,1,4,0.00
2013-8-16,74,66,60,63,58,55,84,74,61,30.04,29.96,5,1,5,0.00
2013-8-17,79,68,56,64,59,53,90,75,58,30.06,29.97,5,1,5,0.00
2013-8-18,82,72,61,67,63,57,90,75,58,30.06,29.97,6,1,6,0.00
2013-8-19,84,73,62,70,64,59,91,75,52,30.04,29.93,5,1,5,0.00
2013-8-20,86,75,64,72,66,60,90,74,55,30.01,29.94,5,1,5,0.00
2013-8-21,88,77,65,74,67,61,89,74,57,30.04,29.95,6,1,6,0.00
2013-8-22,90,77,68,75,68,64,90,77,54,30.04,29.93,5,0,5,0.00
2013-8-23,90,79,68,76,70,64,89,75,54,30.01,29.93,4,1,4,0.01
2013-8-24,90,80,71,77,71,67,89,75,58,30.09,29.97,5,2,5,0.00
2013-8-25,90,79,69,76,70,66,90,74,53,30.14,30.05,5,1,5,0.00
2013-8-26,90,80,71,76,72,68,91,76,57,30.13,30.01,6,1,6,0.00
2013-8-27,89,79,70,73,69,66,88,72,52,30.04,29.94,6,1,6,0.00
2013-8-28,90,79,69,74,70,65,89,75,54,30.00,29.93,5,1,5,0.00
2013-8-29,92,81,70,76,72,67,90,76,57,30.00,29.90,4,0,4,0.00
2013-8-30,93,83,74,77,73,70,90,73,53,29.93,29.80,5,1,5,0.00
2013-8-31,95,83,73,75,72,69,88,71,49,29.83,29.72,8,1,8,0.00
2013-9-1,85,78,73,73,71,67,87,79,65,29.85,29.72,9,1,9,0.05
2013-9-2,84,75,67,69,65,60,89,73,53,29.91,29.81,6,1,6,0.00
2013-9-3,85,73,60,68,61,56,89,69,46,29.99,29.90,5,1,5,0.00
2013-9-4,86,73,59,67,60,54,87,66,46,30.07,29.96,6,1,6,0.00
2013-9-5,87,74,61,68,61,56,86,67,43,30.11,30.01,5,1,5,0.00
2013-9-6,87,74,63,70,62,58,86,68,42,30.07,29.93,6,1,6,0.00
2013-9-7,92,78,64,73,66,60,88,69,47,29.97,29.86,5,1,6,0.00
2013-9-8,92,79,69,77,69,64,84,74,55,29.90,29.80,5,0,5,0.00
2013-9-9,95,82,70,73,68,65,88,66,41,29.92,29.84,6,1,6,0.00
2013-9-10,93,80,70,71,66,64,83,63,39,30.03,29.91,7,1,7,0.00
2013-9-11,92,80,68,73,68,62,84,68,48,30.06,29.96,6,1,6,0.00
2013-9-12,88,78,70,73,68,64,88,72,57,30.00,29.92,7,1,7,0.00
2013-9-13,77,69,60,64,54,50,80,59,45,30.03,29.93,7,1,7,0.00
2013-9-14,79,66,56,56,52,48,75,62,42,29.96,29.90,5,1,5,0.00
2013-9-15,88,72,58,67,58,50,75,64,48,29.97,29.90,6,1,6,0.00
2013-9-16,74,69,66,69,64,60,90,84,70,30.10,29.96,4,1,4,0.22
2013-9-17,78,70,63,71,66,61,94,86,75,30.07,29.92,5,1,5,1.71
2013-9-18,82,73,68,73,69,64,91,86,68,29.94,29.85,6,1,6,0.23
2013-9-19,89,77,70,73,69,66,91,79,55,29.91,29.78,10,2,10,0.00
2013-9-20,73,66,57,68,62,53,94,88,73,29.89,29.83,7,1,7,0.99
2013-9-21,72,61,50,55,51,47,92,73,47,29.92,29.82,9,1,9,0.01
2013-9-22,75,62,47,57,51,44,89,70,49,29.90,29.79,6,1,6,0.00
2013-9-23,77,64,52,60,54,47,86,71,51,29.85,29.73,7,1,7,0.00
2013-9-24,77,67,59,61,58,54,87,74,56,29.81,29.73,7,1,7,0.00
2013-9-25,78,66,56,65,59,52,90,78,59,29.79,29.73,4,0,4,0.00
2013-9-26,82,70,59,67,61,55,90,75,57,29.88,29.76,4,1,4,0.00
2013-9-27,84,73,64,69,64,60,90,74,53,29.94,29.83,6,1,6,0.00
2013-9-28,74,66,61,68,63,59,93,90,77,29.95,29.82,6,1,6,0.46
2013-9-29,73,63,55,59,56,53,93,79,52,29.97,29.85,6,1,7,0.02
2013-9-30,78,67,57,68,62,53,93,85,69,29.86,29.76,5,1,5,0.00
2013-10-1,83,72,64,72,66,62,94,81,58,29.91,29.80,6,1,6,0.00
2013-10-2,81,71,66,74,67,62,93,87,71,29.94,29.83,5,1,5,0.00
2013-10-3,84,74,66,73,67,63,93,82,61,29.86,29.75,7,1,7,0.00
2013-10-4,84,75,68,73,68,64,92,80,65,29.84,29.76,7,1,7,0.00
2013-10-5,72,58,48,68,55,46,93,91,82,29.91,29.80,6,1,6,1.69
2013-10-6,58,51,43,47,44,40,93,77,59,29.89,29.80,9,2,9,0.01
2013-10-7,69,56,45,52,47,42,88,72,49,30.03,29.88,6,1,6,0.00
2013-10-8,72,59,47,56,50,43,88,74,54,30.05,29.96,6,1,6,0.00
2013-10-9,73,60,47,56,50,43,86,71,48,30.03,29.94,5,1,5,0.00
2013-10-10,75,62,52,61,54,48,89,75,54,30.01,29.84,5,1,5,0.00
2013-10-11,78,66,57,67,60,54,91,81,66,29.86,29.76,7,1,7,0.00
2013-10-12,69,62,53,61,57,49,93,83,64,30.08,29.80,8,1,8,0.48
2013-10-13,70,60,53,51,48,43,87,64,48,30.24,30.08,7,1,7,0.03
2013-10-14,65,60,54,60,52,45,90,76,65,30.16,29.87,6,1,6,0.02
2013-10-15,63,58,51,60,55,47,93,89,78,29.94,29.78,6,1,6,0.43
2013-10-16,58,50,42,47,44,39,89,78,64,29.99,29.88,7,1,7,0.00
2013-10-17,62,53,46,47,44,42,89,74,54,29.93,29.85,5,1,5,0.00
2013-10-18,58,48,42,49,42,38,90,81,68,29.96,29.88,8,1,8,0.19
2013-10-19,58,45,36,43,38,34,92,77,50,29.98,29.88,8,2,8,0.02
2013-10-20,68,53,41,46,41,37,86,67,38,29.89,29.77,9,1,9,0.00
2013-10-21,56,49,40,45,41,35,85,75,57,29.98,29.83,7,1,7,0.00
2013-10-22,66,50,38,48,40,33,88,70,45,29.96,29.78,10,2,10,0.00
2013-10-23,57,45,35,42,36,31,86,72,55,30.06,29.90,5,1,5,0.00
2013-10-24,51,44,37,38,33,28,86,67,44,30.29,29.97,12,2,12,0.00
2013-10-25,56,37,31,34,28,25,82,71,43,30.35,30.09,3,0,3,0.00
2013-10-26,64,51,40,52,42,31,81,73,64,30.08,29.95,4,1,4,0.00
2013-10-27,65,49,35,44,38,31,84,67,41,30.00,29.87,4,0,4,0.00
2013-10-28,67,54,42,55,48,38,92,81,64,30.06,29.91,4,1,4,0.00
2013-10-29,64,59,53,62,57,49,94,93,87,30.04,29.88,5,1,5,1.70
2013-10-30,66,64,61,64,62,60,94,94,93,29.93,29.74,6,1,6,0.63
2013-10-31,69,60,50,63,58,47,95,92,81,29.70,29.35,8,2,8,0.40
2013-11-1,49,48,48,47,42,42,91,80,77,29.85,29.61,2,0,2,0.01
2013-11-2,43,41,38,36,35,34,82,79,75,30.08,30.06,0,0,0,0.00
2013-11-3,59,47,34,44,38,30,91,72,52,30.10,29.91,8,1,8,0.00
2013-11-4,60,53,48,50,45,40,89,76,67,30.05,29.90,8,2,8,0.00
2013-11-5,59,56,52,57,53,49,95,93,88,30.04,29.83,7,2,7,0.47
2013-11-6,59,45,39,58,42,34,94,89,81,30.20,29.78,11,2,11,0.46
2013-11-7,59,44,32,42,35,30,92,74,46,30.28,30.19,7,1,7,0.00
2013-11-8,65,49,34,45,37,30,89,66,38,30.22,29.93,8,1,8,0.00
2013-11-9,66,53,43,47,41,36,80,65,43,30.14,29.95,7,1,8,0.00
2013-11-10,65,51,41,41,38,36,84,62,38,30.26,30.14,5,1,5,0.00
2013-11-11,62,51,38,52,44,34,88,75,63,30.31,30.04,14,2,14,0.00
2013-11-12,38,31,24,34,20,15,87,64,44,30.60,30.31,14,4,14,0.00
2013-11-13,52,35,20,24,19,14,79,54,28,30.53,30.15,7,1,7,0.00
2013-11-14,55,43,29,28,23,18,66,47,27,30.15,29.90,7,1,7,0.00
2013-11-15,59,49,43,48,40,28,88,72,51,29.92,29.74,8,1,8,0.00
2013-11-16,71,62,51,62,56,47,91,82,64,29.75,29.49,9,3,9,0.03
2013-11-17,73,65,49,64,46,24,84,53,27,29.94,29.40,17,4,17,0.00
2013-11-18,60,48,38,40,31,27,80,55,31,30.15,29.93,9,1,9,0.00
2013-11-19,58,47,37,35,30,25,70,52,34,30.14,29.96,8,2,8,0.00
2013-11-20,59,49,39,35,32,26,76,53,38,29.96,29.79,8,2,8,0.02
2013-11-21,54,50,42,49,44,34,93,82,48,30.13,29.86,7,1,7,0.82
2013-11-22,41,32,30,39,30,27,93,91,88,30.37,30.12,14,4,14,0.00
2013-11-23,38,30,19,28,20,11,89,69,51,30.53,30.36,13,4,13,0.00
2013-11-24,30,23,16,14,11,9,78,61,44,30.53,30.21,6,1,6,0.00
2013-11-25,36,32,29,29,23,14,81,70,54,30.21,30.02,6,1,6,0.01
2013-11-26,43,33,24,32,25,14,86,72,57,30.17,29.97,17,4,17,0.00
2013-11-27,35,25,18,16,13,10,75,61,44,30.25,30.12,10,2,10,0.00
2013-11-28,51,35,24,30,23,14,75,61,43,30.30,30.11,12,1,12,0.00
2013-11-29,55,39,26,33,28,20,82,65,43,30.36,30.17,6,0,6,0.00
2013-11-30,62,46,34,45,36,27,84,69,53,30.18,29.97,13,1,13,0.00
2013-12-1,55,46,37,49,42,34,92,87,78,30.01,29.77,4,0,4,0.00
2013-12-2,59,49,40,50,45,38,94,85,69,29.77,29.56,7,0,7,0.00
2013-12-3,62,50,38,54,46,35,94,88,71,29.57,29.45,6,1,6,0.00
2013-12-4,63,48,31,53,44,27,94,85,58,29.82,29.45,11,2,11,0.00
2013-12-5,31,23,19,27,18,15,88,81,72,30.15,29.81,11,4,11,0.00
2013-12-6,20,18,12,15,12,4,88,80,68,30.40,30.09,11,4,12,0.00
2013-12-7,23,15,6,13,7,1,82,70,52,30.47,30.16,7,2,7,0.00
2013-12-8,28,23,18,26,19,9,93,84,64,30.17,29.85,8,1,8,0.00
2013-12-9,27,22,18,25,18,14,91,83,69,30.18,30.00,9,2,9,0.00
2013-12-10,35,22,7,20,13,3,88,70,51,30.24,30.10,6,1,6,0.11
2013-12-11,34,22,12,24,15,7,88,73,54,30.45,30.13,10,2,10,0.02
2013-12-12,42,26,11,24,15,5,81,64,44,30.45,30.11,6,1,6,0.06
2013-12-13,34,32,26,32,28,17,93,85,62,30.11,29.73,6,1,6,0.09
2013-12-14,34,30,26,32,28,23,93,90,86,30.06,29.70,10,3,13,0.08
2013-12-15,46,32,19,36,27,17,90,80,61,30.08,29.93,8,1,8,0.27
2013-12-16,61,46,36,39,34,29,80,63,41,30.00,29.88,8,2,8,0.00
2013-12-17,52,37,28,36,29,24,89,73,47,30.16,29.97,12,1,12,0.00
2013-12-18,63,44,27,40,32,22,86,65,39,30.14,29.80,9,2,9,0.00
2013-12-19,58,53,45,51,46,37,87,78,71,29.80,29.61,6,2,8,0.00
2013-12-20,60,43,31,56,40,29,92,90,80,29.75,29.59,9,2,9,0.01
2013-12-21,35,33,31,34,31,29,94,93,92,29.69,29.38,8,0,8,0.34
2013-12-22,35,29,24,34,26,21,94,89,85,30.18,29.54,10,3,10,0.00
2013-12-23,26,21,16,21,16,13,88,84,72,30.40,30.18,9,2,9,0.00
2013-12-24,34,23,11,23,16,8,89,76,63,30.40,30.10,8,2,8,0.00
2013-12-25,38,31,27,33,26,21,91,83,76,30.22,30.13,7,1,7,0.00
2013-12-26,49,34,22,34,26,19,92,75,47,30.23,30.12,9,1,9,0.00
2013-12-27,58,40,27,36,29,23,89,68,40,30.24,30.14,7,1,7,0.00
2013-12-28,55,41,30,37,30,24,82,67,41,30.14,29.80,7,1,7,0.00
2013-12-29,43,29,18,36,22,12,85,76,68,30.12,29.79,12,4,12,0.00
2013-12-30,37,23,11,20,13,6,78,65,44,30.16,30.04,6,1,6,0.00
2013-12-31,55,38,21,30,22,14,78,57,35,30.21,30.01,8,1,8,0.00
2014-1-1,50,36,20,32,26,17,88,69,47,30.01,29.76,13,2,13,0.00
2014-1-2,20,14,8,16,7,2,86,75,58,30.29,29.97,13,3,13,0.00